Regional Weather Roundup
Issued by NWS Sioux Falls, SD

Home | Current Version | Previous Version | Text Only | Print | Product List | Glossary On
Versions: 1 2 3 4 5 6 7 8 9 10 11 12 13 14 15 16 17 18 19 20 21 22 23 24 25 26 27 28 29 30 31 32 33 34 35 36 37 38 39 40 41 42 43 44 45 46 47 48 49 50
000
ASUS43 KFSD 141602
RWRFSD

WEATHER ROUNDUP FOR SE SOUTH DAKOTA/SW MINNESOTA/NW IOWA
NATIONAL WEATHER SERVICE SIOUX FALLS SD
1100 AM CDT SUN SEP 14 2014

NOTE: "FAIR" INDICATES FEW OR NO CLOUDS BELOW 12,000 FEET WITH NO
SIGNIFICANT WEATHER AND OR OBSTRUCTIONS TO VISIBILITY.


SDZ038>040-050-052>070-141700-
SOUTHEAST SOUTH DAKOTA

CITY           SKY/WX    TMP DP  RH WIND       PRES   REMARKS
CHAMBERLAIN    CLOUDY    52  42  69 E3        30.19S
HURON          MOSUNNY   55  41  59 NE6       30.19F
MADISON        FAIR      55  41  58 N3        30.18F
MITCHELL       PTSUNNY   56  43  61 NE5       30.19F
SIOUX FALLS    MOSUNNY   59  43  55 VRB5      30.18F
WINNER         CLOUDY    53  42  66 E3        30.20R
YANKTON        MOSUNNY   54  45  71 CALM      30.20S
$$

MNZ071-072-080-081-089-090-097-098-141700-
SOUTHWEST MINNESOTA

CITY           SKY/WX    TMP DP  RH WIND       PRES   REMARKS
FAIRMONT       SUNNY     57  43  58 NW6       30.18S
JACKSON        SUNNY     57  41  54 NW3       30.18S
LUVERNE        SUNNY     57  43  58 N6        30.18F
MARSHALL       MOSUNNY   57  36  44 NW8       30.17S
MONTEVIDEO     MOSUNNY   55  45  67 N7        30.17R
PIPESTONE      SUNNY     55  41  58 CALM      30.18S
REDWOOD FALLS  MOSUNNY   58  40  51 W10       30.16S
TRACY          MOSUNNY   59  40  50 CALM      30.17F
WINDOM         SUNNY     59  43  55 W3        30.17S
WORTHINGTON    SUNNY     57  37  47 CALM      30.19S
$$

IAZ001>003-012>014-020>022-031-032-NEZ013-014-SDZ071-141700-
NORTHWEST IOWA

CITY           SKY/WX    TMP DP  RH WIND       PRES   REMARKS
CHEROKEE       MOSUNNY   55  50  83 S6        30.19S
DENISON        MOSUNNY   59  50  72 SW8       30.20R
ESTHERVILLE    SUNNY     56  45  66 W3        30.18S
LE MARS        PTSUNNY   54  48  82 VRB5      30.21R
ORANGE CITY    MOSUNNY   54  46  76 SW3       30.20R
SHELDON        MOSUNNY   57  46  67 VRB5      30.17F
SIOUX CITY     PTSUNNY   57  48  72 CALM      30.20S
SPENCER        MOSUNNY   57  46  66 W6        30.18F
STORM LAKE     MOSUNNY   57  50  77 SW9       30.20R
$$

ABBREVIATIONS USED IN REMARKS
   TC - TEMPERATURE IN CELSIUS
  WCI - WIND CHILL INDEX
   HX - HEAT INDEX
  VSB - VISIBILITY



USA.gov is the U.S. government's official web portal to all federal, state and local government web resources and services.